EWG6PG EDDH-GCLP

Flight info

Callsign EWG6PG
Flight time 4h 55m
Altitude 32000
Route HABFU1G HABFU Y348 MAWEQ DCT TOLVU/N0451F330 DCT RAPOR DCT GIMER DCT ESTOC UT300 PON UN872 ERIGA UZ218 FUJTI DCT ATLEN DCT ABUPI DCT BEXAL/N0454F350 DCT SAMAR SAMAR6C
Aircraft A321/M-SDE3FGHIRWY/LB1

Departure

Time 2026-04-22 08:52
Airport Hamburg Helmut Schmidt Airport (EDDH)

Arrival

Time 2026-04-22 13:47
Airport Gran Canaria Airport (GCLP)
Time Latitude Longitude Altitude Speed Heading
2026-04-22 08:29 53.63111 10.00362 48 ft 0 kts 86°
2026-04-22 08:42 53.63111 10.00354 48 ft 2 kts 86°
2026-04-22 08:42 53.63110 10.00329 46 ft 2 kts 86°
2026-04-22 08:43 53.63109 10.00304 46 ft 2 kts 86°
2026-04-22 08:43 53.63108 10.00279 44 ft 2 kts 86°
2026-04-22 08:43 53.63107 10.00253 44 ft 2 kts 86°
2026-04-22 08:43 53.63106 10.00228 46 ft 2 kts 103°
2026-04-22 08:44 53.63112 10.00205 43 ft 2 kts 139°
2026-04-22 08:44 53.63124 10.00190 44 ft 2 kts 167°
2026-04-22 08:44 53.63134 10.00188 48 ft 0 kts 177°
2026-04-22 08:48 53.63129 10.00188 48 ft 1 kts 177°
2026-04-22 08:49 53.63119 10.00189 44 ft 2 kts 177°
2026-04-22 08:49 53.63099 10.00191 48 ft 4 kts 178°
2026-04-22 08:49 53.63065 10.00177 45 ft 6 kts 202°
2026-04-22 08:49 53.63023 10.00138 46 ft 8 kts 211°
2026-04-22 08:50 53.62973 10.00087 48 ft 9 kts 211°
2026-04-22 08:50 53.62928 10.00019 48 ft 9 kts 235°
2026-04-22 08:50 53.62898 9.99924 48 ft 10 kts 244°
2026-04-22 08:50 53.62864 9.99804 45 ft 13 kts 244°
2026-04-22 08:51 53.62873 9.99739 43 ft 6 kts 329°
2026-04-22 08:51 53.62939 9.99682 45 ft 29 kts 333°
2026-04-22 08:51 53.63347 9.99328 47 ft 99 kts 333°
2026-04-22 08:51 53.64120 9.98658 51 ft 153 kts 333°
2026-04-22 08:52 53.65139 9.97779 565 ft 160 kts 332°
2026-04-22 08:52 53.66122 9.96905 1406 ft 160 kts 332°
2026-04-22 08:52 53.67131 9.96047 1772 ft 174 kts 333°
2026-04-22 08:52 53.68279 9.95073 1999 ft 195 kts 333°
2026-04-22 08:53 53.69520 9.94015 2417 ft 203 kts 333°
2026-04-22 08:53 53.70770 9.92875 2868 ft 207 kts 324°
2026-04-22 08:53 53.71534 9.90841 3321 ft 215 kts 281°
2026-04-22 08:53 53.71392 9.88223 3509 ft 237 kts 257°
2026-04-22 08:54 53.70894 9.85477 3759 ft 256 kts 253°
2026-04-22 08:54 53.70284 9.82589 4242 ft 264 kts 251°
2026-04-22 08:54 53.69647 9.79652 4846 ft 268 kts 252°
2026-04-22 08:54 53.69008 9.76669 5449 ft 272 kts 252°
2026-04-22 08:55 53.68373 9.73633 6034 ft 277 kts 252°
2026-04-22 08:55 53.67743 9.70540 6618 ft 281 kts 252°
2026-04-22 08:55 53.67112 9.67395 7163 ft 285 kts 253°
2026-04-22 08:55 53.66482 9.64207 7728 ft 288 kts 253°
2026-04-22 08:56 53.65779 9.61030 8302 ft 292 kts 244°
2026-04-22 08:56 53.64636 9.58175 8872 ft 296 kts 227°
2026-04-22 08:56 53.63065 9.55938 9443 ft 298 kts 211°
2026-04-22 08:56 53.61238 9.54251 10006 ft 301 kts 207°
2026-04-22 08:57 53.59384 9.52568 10545 ft 304 kts 208°
2026-04-22 08:57 53.57475 9.50822 10711 ft 321 kts 208°
2026-04-22 08:57 53.55460 9.48973 10839 ft 338 kts 208°
2026-04-22 08:57 53.53342 9.47036 10962 ft 354 kts 208°
2026-04-22 08:58 53.51133 9.45021 11116 ft 368 kts 208°
2026-04-22 08:58 53.48857 9.42942 11491 ft 374 kts 208°
2026-04-22 08:58 53.46557 9.40847 11968 ft 378 kts 208°
2026-04-22 08:58 53.44237 9.38739 12455 ft 381 kts 208°
2026-04-22 08:59 53.41898 9.36617 12939 ft 384 kts 207°
2026-04-22 08:59 53.39542 9.34478 13422 ft 387 kts 207°
2026-04-22 08:59 53.37167 9.32324 13893 ft 390 kts 207°
2026-04-22 08:59 53.34774 9.30156 14354 ft 393 kts 207°
2026-04-22 09:00 53.32282 9.28281 14739 ft 394 kts 197°
2026-04-22 09:00 53.29767 9.27184 15125 ft 396 kts 188°
2026-04-22 09:00 53.27045 9.26382 15542 ft 398 kts 188°
2026-04-22 09:00 53.24310 9.25570 15969 ft 401 kts 188°
2026-04-22 09:01 53.21549 9.24749 16391 ft 404 kts 188°
2026-04-22 09:01 53.18775 9.23924 16804 ft 407 kts 187°
2026-04-22 09:01 53.15981 9.23093 17207 ft 410 kts 187°
2026-04-22 09:01 53.13160 9.22255 17598 ft 413 kts 187°
2026-04-22 09:02 53.10327 9.21412 17981 ft 415 kts 187°
2026-04-22 09:02 53.07471 9.20565 18355 ft 418 kts 187°
2026-04-22 09:02 53.04594 9.19716 18732 ft 421 kts 187°
2026-04-22 09:02 53.01702 9.18865 19066 ft 423 kts 187°
2026-04-22 09:03 52.98801 9.18013 19396 ft 426 kts 187°
2026-04-22 09:03 52.95896 9.16954 19722 ft 430 kts 194°
2026-04-22 09:03 52.93086 9.15150 20041 ft 436 kts 204°
2026-04-22 09:03 52.90398 9.12786 20361 ft 439 kts 206°
2026-04-22 09:04 52.87700 9.10393 20680 ft 441 kts 206°
2026-04-22 09:04 52.84983 9.08009 21000 ft 444 kts 206°
2026-04-22 09:04 52.82247 9.05623 21315 ft 446 kts 205°
2026-04-22 09:04 52.79477 9.03214 21648 ft 448 kts 205°
2026-04-22 09:05 52.76721 9.00820 21969 ft 451 kts 205°
2026-04-22 09:05 52.73940 8.98409 22292 ft 453 kts 205°
2026-04-22 09:05 52.72083 8.96800 22502 ft 455 kts 205°
2026-04-22 09:05 52.69274 8.94369 22814 ft 457 kts 205°
2026-04-22 09:06 52.66449 8.91921 23126 ft 459 kts 205°
2026-04-22 09:06 52.63615 8.89462 23423 ft 462 kts 205°
2026-04-22 09:06 52.60766 8.86989 23736 ft 464 kts 205°
2026-04-22 09:06 52.57904 8.84503 24016 ft 466 kts 205°
2026-04-22 09:07 52.55028 8.82013 24278 ft 468 kts 205°
2026-04-22 09:07 52.52140 8.79520 24567 ft 470 kts 205°
2026-04-22 09:07 52.49243 8.77027 24841 ft 471 kts 205°
2026-04-22 09:07 52.46337 8.74527 25116 ft 472 kts 205°
2026-04-22 09:08 52.43417 8.72018 25381 ft 474 kts 205°
2026-04-22 09:08 52.40499 8.69518 25649 ft 475 kts 205°
2026-04-22 09:08 52.37565 8.67011 25914 ft 476 kts 205°
2026-04-22 09:08 52.34622 8.64499 26180 ft 478 kts 205°
2026-04-22 09:09 52.31669 8.61986 26440 ft 479 kts 205°
2026-04-22 09:09 52.28752 8.59485 26708 ft 481 kts 207°
2026-04-22 09:09 52.25943 8.56481 26957 ft 485 kts 216°
2026-04-22 09:09 52.23275 8.52989 27210 ft 487 kts 217°
2026-04-22 09:10 52.20669 8.49572 27455 ft 488 kts 217°
2026-04-22 09:10 52.18014 8.46117 27695 ft 489 kts 217°
2026-04-22 09:10 52.15345 8.42663 27924 ft 490 kts 217°
2026-04-22 09:10 52.12671 8.39211 28150 ft 491 kts 217°
2026-04-22 09:11 52.09998 8.35758 28365 ft 492 kts 217°
2026-04-22 09:11 52.07314 8.32291 28576 ft 493 kts 217°
2026-04-22 09:11 52.04631 8.28831 28893 ft 492 kts 217°
2026-04-22 09:11 52.01954 8.25386 29198 ft 490 kts 217°
2026-04-22 09:12 51.99283 8.21951 29482 ft 489 kts 217°
2026-04-22 09:12 51.96614 8.18522 29759 ft 488 kts 217°
2026-04-22 09:12 51.93959 8.15112 30050 ft 488 kts 217°
2026-04-22 09:12 51.91297 8.11695 30335 ft 487 kts 217°
2026-04-22 09:13 51.88645 8.08298 30592 ft 486 kts 217°
2026-04-22 09:13 51.85999 8.04917 30825 ft 485 kts 217°
2026-04-22 09:13 51.83345 8.01540 31044 ft 484 kts 217°
2026-04-22 09:13 51.80704 7.98191 31264 ft 483 kts 217°
2026-04-22 09:14 51.78061 7.94843 31480 ft 482 kts 217°
2026-04-22 09:14 51.75418 7.91491 31678 ft 482 kts 217°
2026-04-22 09:14 51.72786 7.88157 31895 ft 481 kts 217°
2026-04-22 09:14 51.70157 7.84833 32099 ft 480 kts 217°
2026-04-22 09:15 51.67527 7.81514 32298 ft 480 kts 217°
2026-04-22 09:15 51.62268 7.74886 32386 ft 479 kts 217°
2026-04-22 09:16 51.57024 7.68297 32384 ft 478 kts 217°
2026-04-22 09:16 51.51778 7.61732 32383 ft 478 kts 217°
2026-04-22 09:17 51.46530 7.55183 32382 ft 477 kts 217°
2026-04-22 09:17 51.41282 7.48669 32380 ft 477 kts 217°
2026-04-22 09:18 51.37173 7.43578 32381 ft 477 kts 217°
2026-04-22 09:18 51.31925 7.37081 32386 ft 477 kts 217°
2026-04-22 09:19 51.26678 7.30592 32384 ft 476 kts 217°
2026-04-22 09:19 51.21436 7.24136 32382 ft 476 kts 217°
2026-04-22 09:20 51.16198 7.17712 32381 ft 475 kts 217°
2026-04-22 09:20 51.10991 7.11338 32373 ft 475 kts 217°
2026-04-22 09:21 51.05758 7.04951 32368 ft 474 kts 217°
2026-04-22 09:21 51.00510 6.98573 32372 ft 474 kts 217°
2026-04-22 09:22 50.95264 6.92217 32370 ft 474 kts 217°
2026-04-22 09:22 50.90023 6.85879 32370 ft 474 kts 217°
2026-04-22 09:23 50.84778 6.79556 32374 ft 473 kts 217°
2026-04-22 09:23 50.79536 6.73255 32372 ft 473 kts 217°
2026-04-22 09:24 50.74294 6.66970 32372 ft 472 kts 217°
2026-04-22 09:24 50.69055 6.60702 32369 ft 472 kts 218°
2026-04-22 09:25 50.63820 6.54471 32362 ft 471 kts 217°
2026-04-22 09:25 50.59172 6.47346 32439 ft 465 kts 240°
2026-04-22 09:25 50.57687 6.42843 32625 ft 463 kts 246°
2026-04-22 09:26 50.56305 6.38322 32796 ft 463 kts 246°
2026-04-22 09:26 50.54912 6.33750 32977 ft 463 kts 246°
2026-04-22 09:26 50.53521 6.29190 33163 ft 462 kts 246°
2026-04-22 09:26 50.52129 6.24641 33289 ft 462 kts 246°
2026-04-22 09:27 50.50730 6.20093 33310 ft 462 kts 246°
2026-04-22 09:27 50.47929 6.11010 33312 ft 461 kts 246°
2026-04-22 09:28 50.45128 6.01963 33315 ft 460 kts 246°
2026-04-22 09:28 50.42326 5.92939 33315 ft 460 kts 246°
2026-04-22 09:29 50.39516 5.83929 33310 ft 460 kts 246°
2026-04-22 09:29 50.36705 5.74940 33316 ft 460 kts 246°
2026-04-22 09:30 50.33888 5.65950 33318 ft 459 kts 246°
2026-04-22 09:30 50.31065 5.56993 33320 ft 459 kts 246°
2026-04-22 09:31 50.28228 5.48035 33320 ft 459 kts 246°
2026-04-22 09:31 50.25395 5.39104 33316 ft 458 kts 246°
2026-04-22 09:32 50.22575 5.30251 33313 ft 458 kts 246°
2026-04-22 09:32 50.19740 5.21362 33317 ft 457 kts 246°
2026-04-22 09:33 50.16901 5.12496 33315 ft 456 kts 246°
2026-04-22 09:33 50.14059 5.03658 33313 ft 456 kts 246°
2026-04-22 09:34 50.11204 4.94843 33309 ft 455 kts 246°
2026-04-22 09:34 50.08302 4.86077 33316 ft 455 kts 245°
2026-04-22 09:35 50.03919 4.72982 33309 ft 454 kts 245°
2026-04-22 09:35 50.01294 4.65129 33307 ft 454 kts 245°
2026-04-22 09:36 49.98391 4.56428 33303 ft 453 kts 245°
2026-04-22 09:36 49.95478 4.47749 33301 ft 453 kts 245°
2026-04-22 09:37 49.92562 4.39101 33302 ft 452 kts 245°
2026-04-22 09:37 49.89634 4.30474 33299 ft 451 kts 245°
2026-04-22 09:38 49.86710 4.21872 33296 ft 450 kts 246°
2026-04-22 09:38 49.83792 4.13309 33298 ft 449 kts 246°
2026-04-22 09:39 49.80874 4.04776 33296 ft 448 kts 246°
2026-04-22 09:39 49.77962 3.96269 33290 ft 447 kts 246°
2026-04-22 09:40 49.75037 3.87801 33289 ft 446 kts 246°
2026-04-22 09:40 49.72479 3.80409 33283 ft 445 kts 247°
2026-04-22 09:41 49.71284 3.76955 33283 ft 444 kts 247°
2026-04-22 09:41 49.68565 3.69108 33280 ft 443 kts 247°
2026-04-22 09:42 49.65927 3.61520 33274 ft 442 kts 247°
2026-04-22 09:42 49.63552 3.54713 33277 ft 441 kts 248°
2026-04-22 09:43 49.60928 3.47212 33274 ft 440 kts 248°
2026-04-22 09:43 49.58022 3.38935 33267 ft 439 kts 248°
2026-04-22 09:44 49.55114 3.30680 33265 ft 437 kts 248°
2026-04-22 09:44 49.52210 3.22465 33272 ft 436 kts 248°
2026-04-22 09:45 49.49308 3.14273 33267 ft 436 kts 248°
2026-04-22 09:45 49.46406 3.06098 33254 ft 435 kts 248°
2026-04-22 09:46 49.43506 2.97946 33248 ft 435 kts 248°
2026-04-22 09:46 49.40594 2.89814 33246 ft 434 kts 248°
2026-04-22 09:47 49.37680 2.81696 33238 ft 434 kts 248°
2026-04-22 09:47 49.34763 2.73579 33239 ft 434 kts 248°
2026-04-22 09:48 49.31835 2.65484 33228 ft 434 kts 247°
2026-04-22 09:48 49.29077 2.57873 33233 ft 434 kts 247°
2026-04-22 09:49 49.26149 2.49798 33230 ft 433 kts 247°
2026-04-22 09:49 49.23710 2.43102 33231 ft 433 kts 247°
2026-04-22 09:50 49.20770 2.35063 33232 ft 433 kts 247°
2026-04-22 09:50 49.17867 2.27022 33232 ft 431 kts 248°
2026-04-22 09:51 49.15035 2.18942 33235 ft 431 kts 248°
2026-04-22 09:51 49.12213 2.10885 33236 ft 430 kts 248°
2026-04-22 09:52 49.09364 2.02850 33237 ft 430 kts 248°
2026-04-22 09:52 49.06773 1.94683 33235 ft 426 kts 251°
2026-04-22 09:53 49.04384 1.86410 33231 ft 426 kts 251°
2026-04-22 09:53 49.01989 1.78222 33221 ft 426 kts 251°
2026-04-22 09:54 48.99515 1.70020 33210 ft 426 kts 250°
2026-04-22 09:54 48.97010 1.61843 33206 ft 426 kts 250°
2026-04-22 09:55 48.94511 1.53661 33214 ft 426 kts 250°
2026-04-22 09:55 48.92014 1.45497 33219 ft 426 kts 250°
2026-04-22 09:56 48.89508 1.37336 33219 ft 426 kts 249°
2026-04-22 09:56 48.87001 1.29193 33216 ft 426 kts 249°
2026-04-22 09:57 48.84489 1.21057 33214 ft 426 kts 249°
2026-04-22 09:57 48.81966 1.12932 33213 ft 426 kts 249°
2026-04-22 09:58 48.79434 1.04804 33196 ft 426 kts 249°
2026-04-22 09:58 48.76906 0.96688 33183 ft 426 kts 249°
2026-04-22 09:59 48.74335 0.88597 33160 ft 428 kts 244°
2026-04-22 09:59 48.71234 0.80883 33161 ft 429 kts 243°
2026-04-22 10:00 48.68111 0.73177 33151 ft 429 kts 243°
2026-04-22 10:00 48.64987 0.65487 33151 ft 429 kts 242°
2026-04-22 10:01 48.61856 0.57799 33150 ft 429 kts 242°
2026-04-22 10:01 48.58730 0.50123 33141 ft 429 kts 242°
2026-04-22 10:02 48.55592 0.42464 33142 ft 429 kts 242°
2026-04-22 10:02 48.52441 0.34826 33139 ft 429 kts 242°
2026-04-22 10:03 48.49296 0.27189 33133 ft 429 kts 242°
2026-04-22 10:03 48.46149 0.19563 33133 ft 428 kts 242°
2026-04-22 10:04 48.42994 0.11955 33124 ft 428 kts 242°
2026-04-22 10:04 48.39835 0.04360 33128 ft 428 kts 242°
2026-04-22 10:05 48.36681 -0.03221 33136 ft 427 kts 241°
2026-04-22 10:05 48.33315 -0.10610 33129 ft 429 kts 237°
2026-04-22 10:06 48.29709 -0.17706 33130 ft 430 kts 236°
2026-04-22 10:06 48.26061 -0.24812 33118 ft 429 kts 236°
2026-04-22 10:07 48.22442 -0.31938 33119 ft 429 kts 236°
2026-04-22 10:07 48.18786 -0.39090 33117 ft 429 kts 236°
2026-04-22 10:08 48.15153 -0.46189 33121 ft 429 kts 236°
2026-04-22 10:08 48.11518 -0.53281 33118 ft 429 kts 236°
2026-04-22 10:09 48.07899 -0.60324 33132 ft 429 kts 236°
2026-04-22 10:09 48.04249 -0.67388 33128 ft 429 kts 236°
2026-04-22 10:10 48.00598 -0.74438 33138 ft 429 kts 236°
2026-04-22 10:10 47.96947 -0.81475 33133 ft 428 kts 236°
2026-04-22 10:11 47.93271 -0.88541 33126 ft 428 kts 235°
2026-04-22 10:11 47.89646 -0.95499 33119 ft 428 kts 235°
2026-04-22 10:12 47.85998 -1.02489 33107 ft 427 kts 235°
2026-04-22 10:12 47.82344 -1.09466 33099 ft 427 kts 235°
2026-04-22 10:13 47.78692 -1.16410 33084 ft 426 kts 235°
2026-04-22 10:13 47.75036 -1.23340 33079 ft 426 kts 235°
2026-04-22 10:14 47.71380 -1.30265 33072 ft 425 kts 235°
2026-04-22 10:14 47.67719 -1.37171 33066 ft 425 kts 235°
2026-04-22 10:15 47.64059 -1.44052 33067 ft 425 kts 235°
2026-04-22 10:15 47.60396 -1.50933 33071 ft 425 kts 235°
2026-04-22 10:16 47.56587 -1.57635 33068 ft 426 kts 231°
2026-04-22 10:16 47.52577 -1.64106 33062 ft 426 kts 230°
2026-04-22 10:17 47.48553 -1.70551 33056 ft 426 kts 231°
2026-04-22 10:17 47.44572 -1.77045 33051 ft 426 kts 231°
2026-04-22 10:18 47.40605 -1.83554 33049 ft 426 kts 231°
2026-04-22 10:18 47.36628 -1.90051 33043 ft 427 kts 230°
2026-04-22 10:19 47.31961 -1.95526 33041 ft 434 kts 214°
2026-04-22 10:19 47.26785 -2.00124 33036 ft 434 kts 214°
2026-04-22 10:20 47.21618 -2.04739 33045 ft 435 kts 214°
2026-04-22 10:20 47.16452 -2.09364 33033 ft 435 kts 214°
2026-04-22 10:21 47.11270 -2.13982 33028 ft 435 kts 214°
2026-04-22 10:21 47.06085 -2.18579 33021 ft 436 kts 214°
2026-04-22 10:22 47.00893 -2.23180 33014 ft 436 kts 214°
2026-04-22 10:22 46.95736 -2.27736 32998 ft 436 kts 214°
2026-04-22 10:23 46.90537 -2.32302 33004 ft 436 kts 214°
2026-04-22 10:23 46.85334 -2.36875 33007 ft 436 kts 214°
2026-04-22 10:24 46.80143 -2.41452 32996 ft 436 kts 214°
2026-04-22 10:24 46.74987 -2.45982 32991 ft 436 kts 214°
2026-04-22 10:25 46.69787 -2.50529 33012 ft 435 kts 214°
2026-04-22 10:25 46.64591 -2.55059 32987 ft 435 kts 214°
2026-04-22 10:26 46.59352 -2.59615 33007 ft 435 kts 214°
2026-04-22 10:26 46.54168 -2.64109 32997 ft 434 kts 214°
2026-04-22 10:27 46.48978 -2.68606 32993 ft 434 kts 214°
2026-04-22 10:27 46.43794 -2.73092 32994 ft 434 kts 214°
2026-04-22 10:28 46.38637 -2.77534 32989 ft 433 kts 214°
2026-04-22 10:28 46.33457 -2.81995 32983 ft 433 kts 214°
2026-04-22 10:29 46.28278 -2.86447 32986 ft 433 kts 214°
2026-04-22 10:29 46.23541 -2.91650 32980 ft 428 kts 223°
2026-04-22 10:30 46.19071 -2.97130 32982 ft 428 kts 223°
2026-04-22 10:30 46.14470 -3.02723 32977 ft 428 kts 223°
2026-04-22 10:31 46.09874 -3.08293 32976 ft 428 kts 223°
2026-04-22 10:31 46.05417 -3.13702 32973 ft 428 kts 223°
2026-04-22 10:32 46.00848 -3.19251 32977 ft 427 kts 223°
2026-04-22 10:32 45.96241 -3.24828 32974 ft 427 kts 223°
2026-04-22 10:33 45.92446 -3.29407 32977 ft 427 kts 223°
2026-04-22 10:33 45.87887 -3.34893 32973 ft 427 kts 223°
2026-04-22 10:34 45.83333 -3.40345 32972 ft 427 kts 222°
2026-04-22 10:34 45.78774 -3.45806 32970 ft 426 kts 222°
2026-04-22 10:35 45.74223 -3.51255 32970 ft 426 kts 222°
2026-04-22 10:35 45.69667 -3.56688 32970 ft 426 kts 222°
2026-04-22 10:36 45.65114 -3.62121 32974 ft 426 kts 222°
2026-04-22 10:36 45.60550 -3.67540 32970 ft 426 kts 222°
2026-04-22 10:37 45.53716 -3.75629 32970 ft 426 kts 222°
2026-04-22 10:38 45.49188 -3.80973 32979 ft 425 kts 222°
2026-04-22 10:38 45.44633 -3.86343 32979 ft 425 kts 221°
2026-04-22 10:39 45.40074 -3.91700 32981 ft 425 kts 221°
2026-04-22 10:39 45.35525 -3.97039 32986 ft 424 kts 221°
2026-04-22 10:40 45.30970 -4.02374 32982 ft 424 kts 221°
2026-04-22 10:40 45.26420 -4.07698 32991 ft 423 kts 221°
2026-04-22 10:41 45.21874 -4.12998 32992 ft 423 kts 221°
2026-04-22 10:41 45.17329 -4.18287 32993 ft 423 kts 221°
2026-04-22 10:42 45.12772 -4.23570 32995 ft 422 kts 221°
2026-04-22 10:42 45.08224 -4.28839 33001 ft 422 kts 221°
2026-04-22 10:43 45.03676 -4.34093 33003 ft 422 kts 221°
2026-04-22 10:43 44.99137 -4.39335 33008 ft 421 kts 220°
2026-04-22 10:44 44.94602 -4.44567 33007 ft 421 kts 220°
2026-04-22 10:44 44.90097 -4.49755 32929 ft 420 kts 222°
2026-04-22 10:45 44.85536 -4.54976 32987 ft 424 kts 222°
2026-04-22 10:45 44.80957 -4.60209 33015 ft 424 kts 222°
2026-04-22 10:46 44.76379 -4.65436 33013 ft 424 kts 222°
2026-04-22 10:46 44.71798 -4.70657 33019 ft 423 kts 222°
2026-04-22 10:47 44.67232 -4.75859 33021 ft 423 kts 222°
2026-04-22 10:47 44.62653 -4.81050 33026 ft 422 kts 222°
2026-04-22 10:48 44.58078 -4.86220 33025 ft 422 kts 222°
2026-04-22 10:48 44.53568 -4.91309 33030 ft 422 kts 222°
2026-04-22 10:49 44.48862 -4.96218 33034 ft 424 kts 216°
2026-04-22 10:49 44.43803 -5.00636 33032 ft 424 kts 216°
2026-04-22 10:50 44.38790 -5.05004 33031 ft 424 kts 216°
2026-04-22 10:50 44.33792 -5.09370 33034 ft 423 kts 216°
2026-04-22 10:51 44.28845 -5.13687 33033 ft 423 kts 216°
2026-04-22 10:51 44.23830 -5.18036 33037 ft 423 kts 216°
2026-04-22 10:52 44.18865 -5.22333 33040 ft 423 kts 216°
2026-04-22 10:52 44.13841 -5.26677 33039 ft 422 kts 216°
2026-04-22 10:53 44.08817 -5.31012 33045 ft 422 kts 216°
2026-04-22 10:53 44.03857 -5.35294 33043 ft 422 kts 216°
2026-04-22 10:54 43.98851 -5.39601 33046 ft 422 kts 216°
2026-04-22 10:54 43.93891 -5.43848 33041 ft 421 kts 216°
2026-04-22 10:55 43.88924 -5.48100 33040 ft 421 kts 215°
2026-04-22 10:55 43.83937 -5.52364 33038 ft 421 kts 215°
2026-04-22 10:56 43.78934 -5.56634 33031 ft 421 kts 215°
2026-04-22 10:56 43.73946 -5.60881 33035 ft 421 kts 215°
2026-04-22 10:57 43.68974 -5.65102 33034 ft 421 kts 215°
2026-04-22 10:57 43.63935 -5.69382 33039 ft 421 kts 215°
2026-04-22 10:58 43.58991 -5.73562 33041 ft 421 kts 215°
2026-04-22 10:58 43.53950 -5.77812 33042 ft 421 kts 215°
2026-04-22 10:59 43.48953 -5.82024 33040 ft 421 kts 215°
2026-04-22 10:59 43.43955 -5.86235 33038 ft 421 kts 215°
2026-04-22 11:00 43.38957 -5.90434 33037 ft 421 kts 214°
2026-04-22 11:00 43.33953 -5.94623 33032 ft 421 kts 214°
2026-04-22 11:01 43.28954 -5.98797 33024 ft 421 kts 214°
2026-04-22 11:01 43.23962 -6.02966 33016 ft 420 kts 214°
2026-04-22 11:02 43.18963 -6.07126 33007 ft 420 kts 214°
2026-04-22 11:02 43.13959 -6.11282 33000 ft 420 kts 214°
2026-04-22 11:03 43.08958 -6.15439 32996 ft 420 kts 214°
2026-04-22 11:03 43.03956 -6.19578 32992 ft 420 kts 214°
2026-04-22 11:04 42.98953 -6.23708 32987 ft 420 kts 214°
2026-04-22 11:04 42.93951 -6.27834 32995 ft 420 kts 214°
2026-04-22 11:05 42.88946 -6.31958 32988 ft 420 kts 214°
2026-04-22 11:05 42.83940 -6.36066 32991 ft 420 kts 213°
2026-04-22 11:06 42.78936 -6.40169 33000 ft 420 kts 214°
2026-04-22 11:06 42.73935 -6.44267 32994 ft 420 kts 213°
2026-04-22 11:07 42.68934 -6.48356 32990 ft 419 kts 213°
2026-04-22 11:07 42.63959 -6.52415 32998 ft 419 kts 213°
2026-04-22 11:08 42.58957 -6.56487 32999 ft 419 kts 213°
2026-04-22 11:08 42.53953 -6.60553 33004 ft 419 kts 213°
2026-04-22 11:09 42.48948 -6.64611 33003 ft 419 kts 213°
2026-04-22 11:09 42.43943 -6.68664 33005 ft 419 kts 213°
2026-04-22 11:10 42.38952 -6.72694 33013 ft 419 kts 213°
2026-04-22 11:10 42.33940 -6.76732 33012 ft 419 kts 213°
2026-04-22 11:11 42.28934 -6.80763 33016 ft 419 kts 213°
2026-04-22 11:11 42.23982 -6.84744 33010 ft 419 kts 213°
2026-04-22 11:12 42.18925 -6.88797 33024 ft 419 kts 213°
2026-04-22 11:12 42.13934 -6.92785 33026 ft 419 kts 213°
2026-04-22 11:13 42.08943 -6.96771 33023 ft 419 kts 213°
2026-04-22 11:13 42.03902 -7.00799 33030 ft 419 kts 213°
2026-04-22 11:14 41.98904 -7.04783 33035 ft 419 kts 213°
2026-04-22 11:14 41.93844 -7.08805 33042 ft 419 kts 213°
2026-04-22 11:15 41.88828 -7.12776 33036 ft 419 kts 212°
2026-04-22 11:15 41.83820 -7.16731 33043 ft 419 kts 212°
2026-04-22 11:16 41.78799 -7.20694 33044 ft 419 kts 212°
2026-04-22 11:16 41.73819 -7.24623 33038 ft 419 kts 213°
2026-04-22 11:17 41.68826 -7.28622 33039 ft 419 kts 213°
2026-04-22 11:17 41.64647 -7.31976 33042 ft 419 kts 213°
2026-04-22 11:18 41.59651 -7.35976 33039 ft 419 kts 213°
2026-04-22 11:18 41.54626 -7.39985 33039 ft 419 kts 213°
2026-04-22 11:19 41.49636 -7.43960 33039 ft 420 kts 213°
2026-04-22 11:19 41.44607 -7.47946 33040 ft 420 kts 212°
2026-04-22 11:20 41.39545 -7.51948 33039 ft 420 kts 212°
2026-04-22 11:20 41.34570 -7.55888 33042 ft 420 kts 212°
2026-04-22 11:21 41.29506 -7.59899 33041 ft 420 kts 212°
2026-04-22 11:21 41.24517 -7.63832 33043 ft 420 kts 212°
2026-04-22 11:22 41.19440 -7.67825 33043 ft 420 kts 212°
2026-04-22 11:22 41.14711 -7.71540 33047 ft 420 kts 212°
2026-04-22 11:23 41.09677 -7.75488 33045 ft 420 kts 212°
2026-04-22 11:23 41.04644 -7.79424 33044 ft 420 kts 212°
2026-04-22 11:24 40.99606 -7.83363 33046 ft 421 kts 212°
2026-04-22 11:24 40.94595 -7.87272 33049 ft 421 kts 212°
2026-04-22 11:25 40.89545 -7.91190 33048 ft 421 kts 212°
2026-04-22 11:25 40.84502 -7.95115 33047 ft 421 kts 212°
2026-04-22 11:26 40.79454 -7.99032 33051 ft 421 kts 212°
2026-04-22 11:26 40.74404 -8.02942 33050 ft 421 kts 212°
2026-04-22 11:27 40.69353 -8.06850 33049 ft 421 kts 212°
2026-04-22 11:27 40.64301 -8.10746 33049 ft 421 kts 212°
2026-04-22 11:28 40.59244 -8.14637 33053 ft 421 kts 212°
2026-04-22 11:28 40.54182 -8.18534 33060 ft 421 kts 212°
2026-04-22 11:29 40.49132 -8.22419 33054 ft 421 kts 212°
2026-04-22 11:29 40.44063 -8.26301 33056 ft 421 kts 212°
2026-04-22 11:30 40.38996 -8.30169 33058 ft 421 kts 212°
2026-04-22 11:30 40.33936 -8.34033 33060 ft 421 kts 212°
2026-04-22 11:31 40.28867 -8.37906 33060 ft 421 kts 212°
2026-04-22 11:31 40.23799 -8.41762 33052 ft 421 kts 212°
2026-04-22 11:32 40.18729 -8.45605 33057 ft 421 kts 212°
2026-04-22 11:32 40.13664 -8.49437 33058 ft 421 kts 212°
2026-04-22 11:33 40.08598 -8.53278 33060 ft 421 kts 212°
2026-04-22 11:33 40.03532 -8.57111 33061 ft 421 kts 212°
2026-04-22 11:34 39.98466 -8.60937 33056 ft 421 kts 212°
2026-04-22 11:34 39.93395 -8.64746 33054 ft 420 kts 212°
2026-04-22 11:35 39.88323 -8.68543 33047 ft 420 kts 212°
2026-04-22 11:35 39.83255 -8.72341 33049 ft 420 kts 212°
2026-04-22 11:36 39.78195 -8.76144 33049 ft 420 kts 212°
2026-04-22 11:36 39.73138 -8.79931 33045 ft 420 kts 212°
2026-04-22 11:37 39.68076 -8.83717 33043 ft 420 kts 212°
2026-04-22 11:37 39.63012 -8.87492 33048 ft 420 kts 212°
2026-04-22 11:38 39.57944 -8.91258 33054 ft 420 kts 212°
2026-04-22 11:38 39.50345 -8.96889 33062 ft 419 kts 212°
2026-04-22 11:39 39.45274 -9.00645 33067 ft 419 kts 212°
2026-04-22 11:39 39.40217 -9.04390 33072 ft 419 kts 212°
2026-04-22 11:40 39.35149 -9.08133 33058 ft 419 kts 212°
2026-04-22 11:40 39.30088 -9.11862 33071 ft 419 kts 212°
2026-04-22 11:41 39.25063 -9.15558 33052 ft 419 kts 212°
2026-04-22 11:41 39.20007 -9.19271 33058 ft 418 kts 212°
2026-04-22 11:42 39.14948 -9.22983 33069 ft 418 kts 212°
2026-04-22 11:42 39.09885 -9.26680 33063 ft 418 kts 212°
2026-04-22 11:43 39.04818 -9.30381 33056 ft 418 kts 212°
2026-04-22 11:43 38.99757 -9.34071 33056 ft 418 kts 212°
2026-04-22 11:44 38.94694 -9.37760 33047 ft 418 kts 212°
2026-04-22 11:44 38.89635 -9.41451 33049 ft 418 kts 212°
2026-04-22 11:45 38.84583 -9.45127 33047 ft 418 kts 212°
2026-04-22 11:45 38.79517 -9.48793 33049 ft 417 kts 212°
2026-04-22 11:46 38.74457 -9.52446 33072 ft 417 kts 212°
2026-04-22 11:46 38.69410 -9.56097 33075 ft 417 kts 212°
2026-04-22 11:47 38.64352 -9.59746 33073 ft 417 kts 212°
2026-04-22 11:47 38.59292 -9.63381 33079 ft 417 kts 212°
2026-04-22 11:48 38.54235 -9.67018 33075 ft 417 kts 212°
2026-04-22 11:48 38.49184 -9.70651 33075 ft 416 kts 212°
2026-04-22 11:49 38.44134 -9.74276 33071 ft 416 kts 212°
2026-04-22 11:49 38.39121 -9.77869 33071 ft 416 kts 212°
2026-04-22 11:50 38.34076 -9.81477 33071 ft 416 kts 212°
2026-04-22 11:50 38.29028 -9.85065 33068 ft 415 kts 212°
2026-04-22 11:51 38.23987 -9.88647 33068 ft 415 kts 212°
2026-04-22 11:51 38.18958 -9.92219 33065 ft 414 kts 212°
2026-04-22 11:52 38.13922 -9.95794 33060 ft 414 kts 212°
2026-04-22 11:52 38.08893 -9.99362 33067 ft 414 kts 212°
2026-04-22 11:53 38.03868 -10.02920 33062 ft 414 kts 212°
2026-04-22 11:53 37.98829 -10.06476 33065 ft 414 kts 212°
2026-04-22 11:54 37.93803 -10.10023 33072 ft 414 kts 212°
2026-04-22 11:54 37.88769 -10.13566 33071 ft 414 kts 212°
2026-04-22 11:55 37.83735 -10.17102 33073 ft 414 kts 212°
2026-04-22 11:55 37.78704 -10.20633 33072 ft 413 kts 212°
2026-04-22 11:56 37.73675 -10.24156 33069 ft 413 kts 212°
2026-04-22 11:56 37.68646 -10.27675 33068 ft 413 kts 212°
2026-04-22 11:57 37.63618 -10.31187 33073 ft 413 kts 212°
2026-04-22 11:57 37.58590 -10.34694 33069 ft 413 kts 212°
2026-04-22 11:58 37.53569 -10.38191 33065 ft 412 kts 212°
2026-04-22 11:58 37.48550 -10.41687 33062 ft 412 kts 212°
2026-04-22 11:59 37.43533 -10.45172 33059 ft 412 kts 212°
2026-04-22 11:59 37.38512 -10.48647 33061 ft 412 kts 212°
2026-04-22 12:00 37.33505 -10.52114 33059 ft 411 kts 212°
2026-04-22 12:00 37.28489 -10.55585 33058 ft 411 kts 212°
2026-04-22 12:01 37.24320 -10.58458 33060 ft 411 kts 211°
2026-04-22 12:01 37.19310 -10.61901 33061 ft 411 kts 211°
2026-04-22 12:02 37.14295 -10.65345 33060 ft 411 kts 211°
2026-04-22 12:02 37.09283 -10.68787 33060 ft 411 kts 211°
2026-04-22 12:03 37.04278 -10.72233 33057 ft 410 kts 211°
2026-04-22 12:03 36.99272 -10.75672 33055 ft 410 kts 211°
2026-04-22 12:04 36.94261 -10.79094 33055 ft 410 kts 211°
2026-04-22 12:04 36.89250 -10.82506 33054 ft 410 kts 211°
2026-04-22 12:05 36.84253 -10.85921 33059 ft 410 kts 211°
2026-04-22 12:05 36.79252 -10.89338 33062 ft 410 kts 211°
2026-04-22 12:06 36.74240 -10.92744 33059 ft 410 kts 211°
2026-04-22 12:06 36.69232 -10.96139 33056 ft 410 kts 211°
2026-04-22 12:07 36.64259 -10.99511 33057 ft 410 kts 211°
2026-04-22 12:07 36.59250 -11.02898 33055 ft 410 kts 211°
2026-04-22 12:08 36.54242 -11.06283 33057 ft 410 kts 211°
2026-04-22 12:08 36.49232 -11.09660 33057 ft 410 kts 211°
2026-04-22 12:09 36.44219 -11.13027 33057 ft 409 kts 211°
2026-04-22 12:09 36.39207 -11.16393 33057 ft 409 kts 211°
2026-04-22 12:10 36.34198 -11.19763 33057 ft 410 kts 211°
2026-04-22 12:10 36.31681 -11.21454 33183 ft 412 kts 211°
2026-04-22 12:10 36.29155 -11.23150 33335 ft 413 kts 211°
2026-04-22 12:11 36.26627 -11.24848 33493 ft 413 kts 211°
2026-04-22 12:11 36.24101 -11.26544 33655 ft 413 kts 211°
2026-04-22 12:11 36.21575 -11.28236 33819 ft 413 kts 211°
2026-04-22 12:11 36.19050 -11.29923 33987 ft 412 kts 211°
2026-04-22 12:12 36.16526 -11.31605 34125 ft 412 kts 211°
2026-04-22 12:12 36.14005 -11.33285 34261 ft 412 kts 211°
2026-04-22 12:12 36.11484 -11.34964 34400 ft 411 kts 211°
2026-04-22 12:12 36.08965 -11.36643 34545 ft 411 kts 211°
2026-04-22 12:13 36.06447 -11.38319 34685 ft 411 kts 211°
2026-04-22 12:13 36.03936 -11.39992 34825 ft 411 kts 211°
2026-04-22 12:13 36.01413 -11.41670 34991 ft 411 kts 211°
2026-04-22 12:13 35.98903 -11.43339 35036 ft 410 kts 211°
2026-04-22 12:14 35.93863 -11.46651 35040 ft 410 kts 210°
2026-04-22 12:14 35.88763 -11.49835 35037 ft 411 kts 210°
2026-04-22 12:15 35.83648 -11.52974 35045 ft 411 kts 210°
2026-04-22 12:15 35.78541 -11.56128 35045 ft 410 kts 210°
2026-04-22 12:16 35.73436 -11.59308 35047 ft 411 kts 210°
2026-04-22 12:16 35.68333 -11.62489 35049 ft 411 kts 210°
2026-04-22 12:17 35.63223 -11.65667 35058 ft 412 kts 210°
2026-04-22 12:17 35.58107 -11.68837 35057 ft 412 kts 210°
2026-04-22 12:18 35.53017 -11.71985 35060 ft 412 kts 210°
2026-04-22 12:18 35.47898 -11.75151 35062 ft 412 kts 210°
2026-04-22 12:19 35.42776 -11.78310 35061 ft 412 kts 210°
2026-04-22 12:19 35.37655 -11.81470 35061 ft 412 kts 210°
2026-04-22 12:20 35.32538 -11.84625 35058 ft 412 kts 210°
2026-04-22 12:20 35.27414 -11.87779 35061 ft 412 kts 210°
2026-04-22 12:21 35.22286 -11.90927 35058 ft 412 kts 210°
2026-04-22 12:21 35.17155 -11.94069 35059 ft 412 kts 210°
2026-04-22 12:22 35.12020 -11.97202 35064 ft 413 kts 210°
2026-04-22 12:22 35.06879 -12.00342 35065 ft 413 kts 210°
2026-04-22 12:23 35.01746 -12.03465 35063 ft 413 kts 210°
2026-04-22 12:23 34.96600 -12.06592 35061 ft 413 kts 210°
2026-04-22 12:24 34.91467 -12.09731 35060 ft 413 kts 210°
2026-04-22 12:24 34.86332 -12.12865 35062 ft 413 kts 210°
2026-04-22 12:25 34.81189 -12.15980 35064 ft 413 kts 210°
2026-04-22 12:25 34.76038 -12.19094 35062 ft 413 kts 210°
2026-04-22 12:26 34.70925 -12.22179 35061 ft 413 kts 210°
2026-04-22 12:26 34.65789 -12.25292 35060 ft 413 kts 210°
2026-04-22 12:27 34.60645 -12.28401 35068 ft 413 kts 210°
2026-04-22 12:27 34.55497 -12.31500 35068 ft 413 kts 210°
2026-04-22 12:28 34.50345 -12.34597 35068 ft 413 kts 210°
2026-04-22 12:28 34.45194 -12.37700 35066 ft 413 kts 210°
2026-04-22 12:29 34.40044 -12.40789 35067 ft 413 kts 210°
2026-04-22 12:29 34.34895 -12.43862 35064 ft 413 kts 210°
2026-04-22 12:30 34.27166 -12.48480 35063 ft 413 kts 210°
2026-04-22 12:31 34.22015 -12.51561 35066 ft 413 kts 210°
2026-04-22 12:31 34.16865 -12.54637 35066 ft 413 kts 210°
2026-04-22 12:32 34.11714 -12.57708 35064 ft 413 kts 210°
2026-04-22 12:32 34.03981 -12.62299 35061 ft 413 kts 210°
2026-04-22 12:33 33.98819 -12.65359 35064 ft 413 kts 210°
2026-04-22 12:33 33.93666 -12.68419 35064 ft 413 kts 210°
2026-04-22 12:34 33.88512 -12.71476 35066 ft 413 kts 210°
2026-04-22 12:34 33.83357 -12.74528 35069 ft 413 kts 210°
2026-04-22 12:35 33.78197 -12.77567 35069 ft 413 kts 210°
2026-04-22 12:35 33.73036 -12.80600 35069 ft 413 kts 210°
2026-04-22 12:36 33.67880 -12.83636 35068 ft 413 kts 210°
2026-04-22 12:36 33.62725 -12.86671 35071 ft 413 kts 210°
2026-04-22 12:37 33.57603 -12.89677 35068 ft 412 kts 210°
2026-04-22 12:37 33.52414 -12.92720 35067 ft 412 kts 210°
2026-04-22 12:38 33.47286 -12.95716 35071 ft 412 kts 210°
2026-04-22 12:38 33.42131 -12.98727 35070 ft 412 kts 210°
2026-04-22 12:39 33.34410 -13.03244 35071 ft 412 kts 210°
2026-04-22 12:40 33.29258 -13.06249 35071 ft 412 kts 210°
2026-04-22 12:40 33.24103 -13.09247 35071 ft 412 kts 210°
2026-04-22 12:41 33.18945 -13.12234 35070 ft 412 kts 210°
2026-04-22 12:41 33.13791 -13.15225 35068 ft 412 kts 210°
2026-04-22 12:42 33.08640 -13.18220 35071 ft 412 kts 210°
2026-04-22 12:42 33.03488 -13.21210 35070 ft 412 kts 210°
2026-04-22 12:43 32.98331 -13.24190 35072 ft 412 kts 210°
2026-04-22 12:43 32.93178 -13.27162 35072 ft 412 kts 210°
2026-04-22 12:44 32.88019 -13.30133 35073 ft 412 kts 210°
2026-04-22 12:44 32.83729 -13.32602 35072 ft 412 kts 210°
2026-04-22 12:45 32.78573 -13.35574 35073 ft 412 kts 210°
2026-04-22 12:45 32.73414 -13.38542 35072 ft 412 kts 210°
2026-04-22 12:46 32.68256 -13.41501 35073 ft 412 kts 210°
2026-04-22 12:46 32.63106 -13.44456 35072 ft 411 kts 210°
2026-04-22 12:47 32.57950 -13.47407 35074 ft 411 kts 210°
2026-04-22 12:47 32.52784 -13.50349 35072 ft 411 kts 210°
2026-04-22 12:48 32.47636 -13.53292 35073 ft 411 kts 210°
2026-04-22 12:48 32.42480 -13.56232 35072 ft 411 kts 210°
2026-04-22 12:49 32.37322 -13.59163 35071 ft 411 kts 210°
2026-04-22 12:49 32.32169 -13.62100 35071 ft 411 kts 211°
2026-04-22 12:50 32.27018 -13.65038 35070 ft 411 kts 210°
2026-04-22 12:50 32.21853 -13.67962 35072 ft 411 kts 210°
2026-04-22 12:51 32.16727 -13.70855 35072 ft 411 kts 210°
2026-04-22 12:51 32.11571 -13.73773 35073 ft 411 kts 211°
2026-04-22 12:52 32.06417 -13.76691 35075 ft 411 kts 211°
2026-04-22 12:52 32.01265 -13.79607 35087 ft 411 kts 211°
2026-04-22 12:53 31.96113 -13.82516 35071 ft 411 kts 211°
2026-04-22 12:53 31.90962 -13.85410 35066 ft 410 kts 211°
2026-04-22 12:54 31.85807 -13.88304 35076 ft 410 kts 211°
2026-04-22 12:54 31.80654 -13.91195 35075 ft 410 kts 211°
2026-04-22 12:55 31.75501 -13.94080 35070 ft 410 kts 211°
2026-04-22 12:55 31.70350 -13.96963 35071 ft 410 kts 211°
2026-04-22 12:56 31.65203 -13.99846 35070 ft 410 kts 211°
2026-04-22 12:56 31.60058 -14.02727 35073 ft 410 kts 211°
2026-04-22 12:57 31.54911 -14.05600 35069 ft 410 kts 211°
2026-04-22 12:57 31.49766 -14.08468 35069 ft 409 kts 211°
2026-04-22 12:58 31.44625 -14.11339 35073 ft 409 kts 211°
2026-04-22 12:58 31.39481 -14.14194 35072 ft 409 kts 211°
2026-04-22 12:59 31.34345 -14.17039 35074 ft 409 kts 211°
2026-04-22 12:59 31.29203 -14.19891 35070 ft 408 kts 211°
2026-04-22 13:00 31.24074 -14.22732 35066 ft 408 kts 211°
2026-04-22 13:00 31.18938 -14.25579 35065 ft 408 kts 211°
2026-04-22 13:01 31.13817 -14.28416 35074 ft 408 kts 211°
2026-04-22 13:01 31.08684 -14.31251 35070 ft 407 kts 211°
2026-04-22 13:02 31.03563 -14.34079 35068 ft 407 kts 211°
2026-04-22 13:02 30.98436 -14.36901 35069 ft 407 kts 211°
2026-04-22 13:03 30.93314 -14.39711 35063 ft 407 kts 211°
2026-04-22 13:03 30.88080 -14.42260 35062 ft 412 kts 204°
2026-04-22 13:04 30.82600 -14.44281 35063 ft 413 kts 204°
2026-04-22 13:04 30.77129 -14.46290 35064 ft 413 kts 204°
2026-04-22 13:05 30.71655 -14.48305 35068 ft 413 kts 205°
2026-04-22 13:05 30.66181 -14.50320 35069 ft 413 kts 205°
2026-04-22 13:06 30.60706 -14.52333 35067 ft 413 kts 205°
2026-04-22 13:06 30.55231 -14.54350 35070 ft 413 kts 205°
2026-04-22 13:07 30.49792 -14.56346 35066 ft 413 kts 205°
2026-04-22 13:07 30.44321 -14.58359 35065 ft 412 kts 205°
2026-04-22 13:08 30.38846 -14.60371 35075 ft 412 kts 205°
2026-04-22 13:08 30.33373 -14.62361 35071 ft 412 kts 205°
2026-04-22 13:09 30.27905 -14.64356 35064 ft 412 kts 205°
2026-04-22 13:09 30.22442 -14.66352 35063 ft 412 kts 205°
2026-04-22 13:10 30.16980 -14.68337 35065 ft 411 kts 205°
2026-04-22 13:10 30.11524 -14.70328 35060 ft 411 kts 206°
2026-04-22 13:11 30.06069 -14.72314 35059 ft 411 kts 206°
2026-04-22 13:11 30.00613 -14.74291 35062 ft 411 kts 206°
2026-04-22 13:12 29.95159 -14.76264 35059 ft 411 kts 206°
2026-04-22 13:12 29.89706 -14.78237 35061 ft 411 kts 206°
2026-04-22 13:13 29.84256 -14.80212 35062 ft 410 kts 206°
2026-04-22 13:13 29.78807 -14.82182 35060 ft 410 kts 206°
2026-04-22 13:14 29.73359 -14.84148 35059 ft 410 kts 206°
2026-04-22 13:14 29.67912 -14.86109 35065 ft 410 kts 206°
2026-04-22 13:15 29.62467 -14.88065 35065 ft 410 kts 206°
2026-04-22 13:15 29.57066 -14.90016 35065 ft 409 kts 206°
2026-04-22 13:16 29.51628 -14.91971 35063 ft 409 kts 206°
2026-04-22 13:16 29.46164 -14.93932 34912 ft 408 kts 206°
2026-04-22 13:16 29.43453 -14.94906 34675 ft 408 kts 206°
2026-04-22 13:17 29.40768 -14.95870 34436 ft 409 kts 206°
2026-04-22 13:17 29.38053 -14.96844 33976 ft 410 kts 206°
2026-04-22 13:17 29.35319 -14.97821 33157 ft 411 kts 205°
2026-04-22 13:17 29.32605 -14.98799 32573 ft 404 kts 205°
2026-04-22 13:18 29.29956 -14.99757 32155 ft 396 kts 205°
2026-04-22 13:18 29.27341 -15.00694 31693 ft 390 kts 203°
2026-04-22 13:18 29.24760 -15.01608 31239 ft 386 kts 202°
2026-04-22 13:18 29.22207 -15.02511 30787 ft 382 kts 202°
2026-04-22 13:19 29.19683 -15.03404 30340 ft 378 kts 201°
2026-04-22 13:19 29.17180 -15.04289 29858 ft 374 kts 201°
2026-04-22 13:19 29.14715 -15.05162 29402 ft 369 kts 201°
2026-04-22 13:19 29.12276 -15.06031 28971 ft 364 kts 201°
2026-04-22 13:20 29.09877 -15.06888 28546 ft 359 kts 201°
2026-04-22 13:20 29.07497 -15.07738 28118 ft 357 kts 201°
2026-04-22 13:20 29.05130 -15.08579 27697 ft 355 kts 200°
2026-04-22 13:20 29.02775 -15.09416 27277 ft 353 kts 200°
2026-04-22 13:21 29.00434 -15.10250 26865 ft 351 kts 200°
2026-04-22 13:21 28.98107 -15.11080 26456 ft 350 kts 200°
2026-04-22 13:21 28.95791 -15.11904 26054 ft 348 kts 200°
2026-04-22 13:21 28.93481 -15.12725 25664 ft 346 kts 200°
2026-04-22 13:22 28.91188 -15.13539 25277 ft 344 kts 199°
2026-04-22 13:22 28.88905 -15.14349 24890 ft 343 kts 199°
2026-04-22 13:22 28.86634 -15.15155 24518 ft 341 kts 199°
2026-04-22 13:22 28.84372 -15.15958 24152 ft 340 kts 199°
2026-04-22 13:23 28.82116 -15.16758 23788 ft 338 kts 199°
2026-04-22 13:23 28.79878 -15.17548 23388 ft 337 kts 198°
2026-04-22 13:23 28.77647 -15.18335 23016 ft 335 kts 198°
2026-04-22 13:23 28.75421 -15.19119 22647 ft 333 kts 198°
2026-04-22 13:24 28.73244 -15.19888 22291 ft 331 kts 198°
2026-04-22 13:24 28.71050 -15.20664 21923 ft 329 kts 198°
2026-04-22 13:24 28.68845 -15.21444 21549 ft 327 kts 198°
2026-04-22 13:24 28.66674 -15.22212 21169 ft 325 kts 198°
2026-04-22 13:25 28.64519 -15.22971 20768 ft 323 kts 198°
2026-04-22 13:25 28.62383 -15.23725 20346 ft 321 kts 198°
2026-04-22 13:25 28.60253 -15.24477 19928 ft 319 kts 198°
2026-04-22 13:25 28.58146 -15.25220 19502 ft 317 kts 198°
2026-04-22 13:26 28.56753 -15.25711 19226 ft 315 kts 198°
2026-04-22 13:26 28.54665 -15.26445 18794 ft 313 kts 198°
2026-04-22 13:26 28.52588 -15.27174 18376 ft 311 kts 198°
2026-04-22 13:26 28.50524 -15.27899 17922 ft 309 kts 198°
2026-04-22 13:27 28.47806 -15.28854 17362 ft 308 kts 198°
2026-04-22 13:27 28.45769 -15.29573 16947 ft 307 kts 198°
2026-04-22 13:27 28.43733 -15.30289 16530 ft 306 kts 198°
2026-04-22 13:27 28.41701 -15.31001 16126 ft 305 kts 198°
2026-04-22 13:28 28.40330 -15.31482 15836 ft 305 kts 198°
2026-04-22 13:28 28.38307 -15.32193 15424 ft 304 kts 198°
2026-04-22 13:28 28.36290 -15.32899 15007 ft 303 kts 198°
2026-04-22 13:28 28.34278 -15.33603 14594 ft 302 kts 198°
2026-04-22 13:29 28.32269 -15.34308 14183 ft 302 kts 198°
2026-04-22 13:29 28.30264 -15.35013 13865 ft 304 kts 198°
2026-04-22 13:29 28.28171 -15.35748 13610 ft 321 kts 198°
2026-04-22 13:29 28.26025 -15.36500 13343 ft 324 kts 198°
2026-04-22 13:30 28.23873 -15.37254 13103 ft 323 kts 198°
2026-04-22 13:30 28.21727 -15.38005 12837 ft 322 kts 198°
2026-04-22 13:30 28.19591 -15.38751 12576 ft 320 kts 198°
2026-04-22 13:30 28.17497 -15.39480 12318 ft 316 kts 198°
2026-04-22 13:31 28.15437 -15.40197 12170 ft 303 kts 198°
2026-04-22 13:31 28.13468 -15.40882 12050 ft 290 kts 198°
2026-04-22 13:31 28.11583 -15.41539 11915 ft 277 kts 198°
2026-04-22 13:31 28.09767 -15.42131 11797 ft 267 kts 191°
2026-04-22 13:32 28.07953 -15.42090 11659 ft 260 kts 169°
2026-04-22 13:32 28.06329 -15.41246 11510 ft 257 kts 146°
2026-04-22 13:32 28.05005 -15.39856 11397 ft 261 kts 139°
2026-04-22 13:32 28.03712 -15.38407 11232 ft 261 kts 139°
2026-04-22 13:33 28.02421 -15.36956 11064 ft 261 kts 139°
2026-04-22 13:33 28.01137 -15.35512 10893 ft 260 kts 140°
2026-04-22 13:33 27.99855 -15.34073 10721 ft 259 kts 140°
2026-04-22 13:33 27.98581 -15.32640 10555 ft 258 kts 140°
2026-04-22 13:34 27.97304 -15.31205 10381 ft 258 kts 140°
2026-04-22 13:34 27.96035 -15.29775 10215 ft 257 kts 140°
2026-04-22 13:34 27.94773 -15.28352 10053 ft 256 kts 140°
2026-04-22 13:34 27.93510 -15.26930 9866 ft 256 kts 140°
2026-04-22 13:35 27.92248 -15.25513 9699 ft 256 kts 140°
2026-04-22 13:35 27.90985 -15.24094 9529 ft 255 kts 140°
2026-04-22 13:35 27.89727 -15.22682 9369 ft 255 kts 140°
2026-04-22 13:35 27.88467 -15.21273 9198 ft 255 kts 140°
2026-04-22 13:36 27.87208 -15.19868 9032 ft 254 kts 140°
2026-04-22 13:36 27.85953 -15.18467 8860 ft 254 kts 139°
2026-04-22 13:36 27.84697 -15.17060 8683 ft 254 kts 139°
2026-04-22 13:36 27.83371 -15.15773 8465 ft 247 kts 155°
2026-04-22 13:37 27.81785 -15.15161 8397 ft 241 kts 178°
2026-04-22 13:37 27.80147 -15.15336 8347 ft 236 kts 201°
2026-04-22 13:37 27.78717 -15.16221 8189 ft 235 kts 216°
2026-04-22 13:37 27.77386 -15.17290 7974 ft 234 kts 217°
2026-04-22 13:38 27.76054 -15.18363 7675 ft 235 kts 217°
2026-04-22 13:38 27.73399 -15.20485 7049 ft 233 kts 216°
2026-04-22 13:38 27.72073 -15.21536 6736 ft 233 kts 217°
2026-04-22 13:39 27.70754 -15.22583 6434 ft 232 kts 217°
2026-04-22 13:39 27.69437 -15.23637 6106 ft 232 kts 219°
2026-04-22 13:39 27.68393 -15.24980 5827 ft 225 kts 242°
2026-04-22 13:39 27.67942 -15.26629 5520 ft 218 kts 265°
2026-04-22 13:40 27.68107 -15.28305 5220 ft 215 kts 288°
2026-04-22 13:40 27.68656 -15.29868 4920 ft 214 kts 291°
2026-04-22 13:40 27.69206 -15.31423 4624 ft 213 kts 291°
2026-04-22 13:40 27.69742 -15.32953 4324 ft 212 kts 291°
2026-04-22 13:41 27.70288 -15.34519 4050 ft 212 kts 291°
2026-04-22 13:41 27.70820 -15.36042 3830 ft 211 kts 291°
2026-04-22 13:41 27.71357 -15.37585 3631 ft 211 kts 291°
2026-04-22 13:41 27.71880 -15.39083 3451 ft 200 kts 291°
2026-04-22 13:42 27.72385 -15.40527 3259 ft 197 kts 291°
2026-04-22 13:42 27.72930 -15.41943 3131 ft 197 kts 300°
2026-04-22 13:42 27.73823 -15.43112 3047 ft 198 kts 320°
2026-04-22 13:42 27.75014 -15.43890 2969 ft 199 kts 335°
2026-04-22 13:43 27.76268 -15.44547 2902 ft 199 kts 334°
2026-04-22 13:43 27.77575 -15.45038 2835 ft 199 kts 352°
2026-04-22 13:43 27.78951 -15.44929 2746 ft 200 kts 16°
2026-04-22 13:43 27.80249 -15.44378 2532 ft 199 kts 21°
2026-04-22 13:44 27.81526 -15.43810 2272 ft 194 kts 22°
2026-04-22 13:44 27.82761 -15.43264 2027 ft 186 kts 22°
2026-04-22 13:44 27.83913 -15.42756 1795 ft 170 kts 22°
2026-04-22 13:44 27.84973 -15.42288 1559 ft 157 kts 22°
2026-04-22 13:45 27.85964 -15.41851 1361 ft 151 kts 22°
2026-04-22 13:45 27.86932 -15.41423 1152 ft 148 kts 23°
2026-04-22 13:45 27.87890 -15.41006 963 ft 147 kts 23°
2026-04-22 13:45 27.88836 -15.40581 779 ft 146 kts 24°
2026-04-22 13:46 27.89768 -15.40166 569 ft 143 kts 24°
2026-04-22 13:46 27.90695 -15.39751 399 ft 143 kts 23°
2026-04-22 13:46 27.91625 -15.39345 193 ft 143 kts 22°
2026-04-22 13:46 27.92537 -15.38941 70 ft 133 kts 22°
2026-04-22 13:47 27.93246 -15.38634 55 ft 71 kts 20°
2026-04-22 13:47 27.93567 -15.38495 55 ft 33 kts 21°
2026-04-22 13:47 27.93784 -15.38423 59 ft 32 kts
2026-04-22 13:47 27.93920 -15.38437 63 ft 9 kts 351°
2026-04-22 13:48 27.93987 -15.38451 71 ft 9 kts 349°
2026-04-22 13:48 27.94050 -15.38504 71 ft 12 kts 297°
2026-04-22 13:48 27.94061 -15.38532 70 ft 8 kts 292°
2026-04-22 13:48 27.94073 -15.38594 74 ft 10 kts 265°
2026-04-22 13:49 27.94022 -15.38647 82 ft 8 kts 203°
2026-04-22 13:49 27.93978 -15.38667 86 ft 5 kts 200°
2026-04-22 13:49 27.93962 -15.38689 86 ft 3 kts 257°
2026-04-22 13:49 27.93966 -15.38716 85 ft 4 kts 285°
2026-04-22 13:50 27.93972 -15.38737 87 ft 2 kts 290°
2026-04-22 13:50 27.93977 -15.38751 85 ft 2 kts 290°
2026-04-22 13:50 27.93980 -15.38760 86 ft 0 kts 291°
2026-04-22 13:50 27.93980 -15.38761 86 ft 0 kts 291°